Daleville, AL

1:43 PM CST on January 16, 2017 (GMT -0600)
Cairns Army Air Field

Weather History for KOZR - January, 2014

Change the Weather History Date:

Wednesday, January 1, 2014

  Actual Average Record
Temperature  
Mean Temperature 48 °F -  
Max Temperature 54 °F 59 °F 75 °F (2013)
Min Temperature 42 °F 38 °F 24 °F (1998)
Degree Days  
Heating Degree Days 17    
Moisture  
Dew Point 40 °F    
Average Humidity 72    
Maximum Humidity 82    
Minimum Humidity 55    
Precipitation  
Precipitation 0.14 in - - ()
Sea Level Pressure  
Sea Level Pressure 30.23 in    
Wind  
Wind Speed 4 mph (ENE)    
Max Wind Speed 6 mph    
Max Gust Speed -    
Visibility 10 miles    
Events Rain    
Averages and records for this station are not official NWS values.
T = Trace of Precipitation, MM = Missing Value Source: NWS Daily Summary

Daily Weather History Graph

Daily Weather History Graph

Search for Another Location

Airport or City:

Trip Planner

Search our weather history database for the weather conditions in past years. The results will help you decide how hot, cold, wet, or windy it might be!

Date:

Astronomy

Jan. 01, 2014 Rise Set
Actual Time 6:41 AM CST 4:51 PM CST
Civil Twilight 6:15 AM CST 5:18 PM CST
Nautical Twilight 5:44 AM CST 5:48 PM CST
Astronomical Twilight 5:15 AM CST 6:17 PM CST
Moon 6:35 AM CST (1/1) 5:30 PM CST (1/1)
Length of Visible Light 11h 03m
Length of Day
10h 09m
New Moon, 0% of the Moon is Illuminated
Jan 1
New Moon
Jan 7
First Quarter
Jan 15
Full
Jan 23
Last Quarter
Jan 30
New

Hourly Weather History & Observations

Time (CST) Temp. Windchill Dew Point Humidity Pressure Visibility Wind Dir Wind Speed Gust Speed Precip Events Conditions
12:58 AM 43.9 °F 41.3 °F 33.4 °F 67% 30.32 in 10.0 mi ENE 4.6 mph - N/A   Mostly Cloudy
1:06 AM 44.6 °F 42.2 °F 32.0 °F 61% 30.32 in 10.0 mi NE 4.6 mph - N/A Rain Light Rain
1:58 AM 43.3 °F 40.7 °F 33.6 °F 69% 30.33 in 10.0 mi NE 4.6 mph - 0.00 in Rain Light Rain
2:58 AM 42.8 °F 40.1 °F 34.2 °F 72% 30.32 in 10.0 mi East 4.6 mph - 0.02 in Rain Light Rain
3:58 AM 43.0 °F 41.3 °F 34.3 °F 72% 30.32 in 10.0 mi East 3.5 mph - 0.03 in Rain Light Rain
4:58 AM 43.3 °F 39.9 °F 35.1 °F 73% 30.30 in 10.0 mi East 5.8 mph - 0.03 in Rain Light Rain
5:58 AM 43.7 °F 40.3 °F 35.1 °F 72% 30.28 in 10.0 mi ESE 5.8 mph - 0.03 in Rain Light Rain
6:09 AM 44.6 °F 41.4 °F 35.6 °F 71% 30.28 in 10.0 mi ESE 5.8 mph - N/A   Partly Cloudy
6:28 AM 44.6 °F 43.1 °F 35.6 °F 71% 30.29 in 10.0 mi ENE 3.5 mph - N/A Rain Light Rain
6:58 AM 44.2 °F 42.7 °F 29.1 °F 55% 30.31 in 10.0 mi North 3.5 mph - 0.00 in Rain Light Rain
7:03 AM 44.6 °F 43.1 °F 33.8 °F 66% 30.29 in 10.0 mi NE 3.5 mph - N/A   Partly Cloudy
7:58 AM 44.6 °F 43.1 °F 36.3 °F 73% 30.31 in 10.0 mi ENE 3.5 mph - 0.00 in   Mostly Cloudy
8:58 AM 45.7 °F 43.4 °F 37.6 °F 73% 30.32 in 10.0 mi NE 4.6 mph - N/A   Overcast
9:58 AM 46.6 °F - 38.5 °F 73% 30.31 in 10.0 mi ENE 3.5 mph - N/A   Overcast
10:58 AM 47.8 °F - 39.6 °F 73% 30.30 in 10.0 mi NNE 3.5 mph - N/A   Mostly Cloudy
11:15 AM 48.2 °F - 39.2 °F 71% 30.30 in 10.0 mi NNE 3.5 mph - N/A   Overcast
11:58 AM 49.3 °F - 40.6 °F 72% 30.28 in 10.0 mi NE 3.5 mph - N/A   Mostly Cloudy
12:25 PM 50.0 °F - 41.0 °F 71% 30.24 in 10.0 mi NNE 4.6 mph - N/A Rain Light Rain
12:58 PM 50.2 °F - 40.3 °F 69% 30.25 in 10.0 mi NNE 2.3 mph - 0.00 in   Light Drizzle
12:59 PM 50.0 °F - 39.2 °F 66% 30.23 in 10.0 mi Variable 3.5 mph - N/A   Partly Cloudy
1:00 PM 50.0 °F - 41.0 °F 71% 30.23 in 10.0 mi NNE 4.6 mph - N/A Rain Light Rain
1:17 PM 50.0 °F - 41.0 °F 71% 30.22 in 10.0 mi NE 5.8 mph - N/A   Scattered Clouds
1:58 PM 51.6 °F - 41.7 °F 69% 30.21 in 10.0 mi ENE 5.8 mph - 0.01 in   Scattered Clouds
2:58 PM 54.0 °F - 42.1 °F 64% 30.18 in 10.0 mi ENE 5.8 mph - N/A   Scattered Clouds
3:58 PM 54.1 °F - 42.4 °F 65% 30.18 in 10.0 mi ENE 4.6 mph - N/A   Mostly Cloudy
4:58 PM 52.5 °F - 42.8 °F 70% 30.17 in 10.0 mi East 3.5 mph - N/A   Mostly Cloudy
5:58 PM 51.6 °F - 43.3 °F 73% 30.15 in 10.0 mi East 4.6 mph - N/A   Overcast
6:58 PM 51.1 °F - 43.5 °F 75% 30.15 in 10.0 mi East 5.8 mph - N/A   Overcast
7:58 PM 50.7 °F - 43.5 °F 76% 30.17 in 10.0 mi North 3.5 mph - N/A   Mostly Cloudy
8:47 PM 50.0 °F - 44.6 °F 82% 30.15 in 10.0 mi ENE 3.5 mph - N/A Rain Light Rain
8:58 PM 50.4 °F - 43.9 °F 78% 30.15 in 10.0 mi East 4.6 mph - 0.00 in Rain Light Rain
9:29 PM 50.0 °F - 44.6 °F 82% 30.14 in 10.0 mi ESE 4.6 mph - N/A   Clear
9:49 PM 50.0 °F - 44.6 °F 82% 30.14 in 10.0 mi East 2.3 mph - N/A Rain Light Rain
9:58 PM 50.2 °F - 44.1 °F 79% 30.15 in 10.0 mi ENE 2.3 mph - 0.00 in Rain Light Rain
10:23 PM 50.0 °F - 44.6 °F 82% 30.14 in 10.0 mi Calm Calm - N/A Rain Light Rain
10:58 PM 50.4 °F - 42.8 °F 75% 30.14 in 10.0 mi ENE 3.5 mph - 0.02 in Rain Light Rain
11:03 PM 50.0 °F - 42.8 °F 76% 30.12 in 9.0 mi East 4.6 mph - N/A   Mostly Cloudy
11:06 PM 50.0 °F - 42.8 °F 76% 30.11 in 9.0 mi East 5.8 mph - N/A Rain Light Rain
11:24 PM 50.0 °F - 42.8 °F 76% 30.10 in 8.0 mi East 5.8 mph - N/A   Partly Cloudy
11:58 PM 50.2 °F - 42.6 °F 75% 30.10 in 9.0 mi NNE 4.6 mph - 0.00 in Rain Light Rain